Vertical_Velocity
0 -0 -1 -4 -3 -4 -4 -5 -5 -1 -4 0 -3 -2 1 2 -0 1 2 4 2 -2 0 0 2 2 1 2 0 0 3 4 2 2 -2 0 -1 5 2 3 -3 -2 -4 8 1 -0 -3
-1 -3 2 3 -2 -2 -2 -5 -5 -4 -4 -3 -4 -1 -1 1 1 6 4 -1 7 1 1 0 3 1 -0 -3 -8 3 0 3 6 4 0 -2 -1 9 1 6 -4 3 3 2 -2 0 -1
-2 1 -2 -4 -6 -4 -7 -5 -4 -8 -7 -6 -4 -4 -0 -2 3 0 7 3 6 6 -2 1 2 2 0 7 -1 2 2 1 4 4 5 4 5 -3 3 2 1 -9 -4 3 -6 -3 -5
-3 -4 -4 -3 -3 -4 -3 -2 -10 -4 -2 -5 -5 -3 -2 2 2 1 1 1 6 18 -2 2 -2 1 -1 1 1 2 2 0 3 4 1 1 4 1 6 2 1 -4 1 1 2 -0 2
-2 -5 -6 -5 -3 -3 -0 2 1 2 -1 -0 -12 2 1 -2 -0 2 -1 -3 -2 28 4 1 -2 1 2 1 1 0 3 1 3 2 8 8 -1 8 -2 4 0 -4 -3 6 12 1 3
-3 -3 -3 -6 -2 -2 0 2 1 -0 2 4 -5 1 7 4 -0 4 2 -4 1 62 8 11 0 2 -3 -1 1 1 2 1 5 0 4 -2 -3 -0 2 -0 -4 6 2 -4 -3 16 0
-1 -4 -5 -3 -1 -1 -1 3 2 3 3 2 4 -2 1 1 -3 -0 9 1 17 51 18 -11 -13 -4 -6 -1 3 -6 2 2 5 7 1 2 -5 -14 0 3 -1 3 -3 -1 -1 0 -1
-3 -1 -3 -5 -1 0 2 -1 1 1 -1 5 2 -1 2 -2 -3 3 4 -2 22 11 8 2 2 -4 -6 -2 2 2 1 2 1 -0 2 1 -13 3 1 -1 1 1 1 -3 -6 -6 2
-1 1 -2 -2 -2 -0 2 2 1 2 3 2 -1 1 -8 -5 -4 -6 -4 -35 27 26 11 4 11 2 -1 2 4 0 1 3 -1 5 -4 1 -4 -1 0 2 -0 -0 1 -1 -0 -5 -7
1 -4 -3 -4 -0 -1 2 2 2 1 2 -3 -1 1 4 1 -0 4 0 -10 23 22 9 4 -8 -3 -6 2 3 2 4 -1 4 -2 3 -1 4 0 1 -1 4 4 6 3 1 1 -0
-3 -4 -4 -0 -0 2 2 0 1 1 1 1 -2 1 0 13 -5 6 -2 -12 -21 20 7 3 9 5 -3 8 -5 -0 -1 3 4 1 -2 3 -0 3 -3 -1 2 -6 0 -2 -1 1 4
-2 -3 -4 0 -0 2 1 3 1 -1 -3 -1 -4 -2 -4 4 -1 12 10 -4 25 16 8 -2 5 -0 1 3 1 -1 0 0 1 3 -1 6 -2 -5 -1 -0 -2 1 -3 -3 0 1 5
-3 0 -4 -1 -1 2 1 -2 -2 -1 -3 -3 -0 -2 -3 5 1 -9 26 8 -0 8 4 -3 -4 4 6 -2 4 -0 -2 -4 -4 -3 -4 -1 -0 -3 -1 1 0 5 -4 1 4 7 -7
1 2 -4 -1 -1 1 0 -0 2 -1 -0 -2 -3 -4 -3 6 0 -2 12 12 8 -1 8 3 -0 2 2 -2 4 -1 1 -2 3 -3 0 -3 9 1 -5 -6 -1 -4 -1 -3 -1 1 -3
3 0 -2 0 1 -1 -0 -2 -1 -2 -1 -2 -4 1 3 15 2 1 9 2 10 3 -5 -8 7 3 8 -2 -4 4 2 -3 -7 -3 -2 1 -1 -0 -3 1 -1 -0 -2 1 9 -9 14
1 -1 1 0 -1 -1 -2 -2 0 -0 -1 -6 -0 12 3 6 5 -4 7 7 6 2 -3 2 -3 1 -2 -1 -0 0 -5 -6 -4 -2 1 0 0 0 5 -1 -1 -3 1 2 3 1 -1
0 -4 -0 -0 -1 -3 -3 -1 -0 -0 3 1 2 3 3 9 6 3 7 7 2 0 5 13 -2 -6 -3 -9 2 -3 -7 -0 2 1 0 1 2 4 -1 -8 1 3 -5 -5 7 -0 3
0 -2 -1 -2 -2 -4 1 -1 -1 2 2 -2 -11 12 1 -3 4 11 -4 12 3 2 3 -0 4 2 -3 -3 4 1 3 2 2 1 -7 -3 1 -2 -8 2 3 11 -8 -7 10 -8 -1
-0 -1 1 -1 -1 -5 1 -2 1 4 1 3 -7 8 6 -19 -9 -3 -3 1 -3 0 4 1 0 0 -1 -5 1 1 5 -1 1 0 0 -3 -1 -1 -1 -6 -3 -8 -4 3 9 20 -15
-1 3 1 0 -3 -4 -3 -1 -2 -1 -5 2 -4 -8 9 2 3 -2 -0 6 -2 -0 1 2 1 3 1 1 0 2 1 1 -0 2 -3 3 2 -6 -3 6 19 -4 0 5 14 14 -13
-4 3 -0 0 -1 -4 -3 -0 -1 -7 -3 4 -2 4 2 1 -3 4 -4 -0 -7 1 1 -1 1 -1 0 -2 1 2 1 -0 1 -1 -1 1 -4 -2 -5 -6 4 2 -3 5 16 -6 23
-4 2 2 2 -1 -2 -2 -1 0 -4 -6 10 -13 -5 -6 -2 2 -5 -1 -1 0 1 1 0 -2 -1 -1 -0 0 -1 -1 1 3 -3 1 -3 -6 3 -11 -0 4 0 6 11 4 -2 -3
-2 -1 -1 -0 -3 -1 -1 2 -3 -3 -7 1 -3 -1 2 3 -0 1 -5 -2 1 2 0 -2 0 -1 2 -1 -2 -4 0 -1 -1 1 -4 4 2 1 -8 -1 0 -1 0 5 1 3 3
0 -3 -0 -1 -0 -4 -1 2 -0 0 -3 -0 2 -4 -3 -3 -4 2 -2 -1 2 -2 -1 -1 -2 -0 -1 -2 -4 -2 -1 -2 -3 -0 2 2 2 1 -10 -8 3 4 -3 1 1 -1 10
1 -4 -1 -0 -1 -1 -3 0 3 -2 -1 -0 -6 -6 0 0 6 0 2 4 -1 -1 1 -0 -1 0 -3 -4 -5 -2 -2 -3 -5 -1 2 3 3 0 1 1 -15 -7 2 3 -3 -2 5
-2 -3 -3 -1 -2 -1 -1 -1 2 4 1 -1 -3 -4 -4 -3 3 1 3 2 -3 -2 -2 -1 2 -1 -1 -4 -1 0 1 2 9 -0 -1 0 6 8 2 3 1 9 2 1 0 5 -6
2 -3 -4 -4 -2 -4 0 -2 1 2 2 2 -0 -0 3 0 -2 -3 -3 -1 -1 -0 -1 1 1 -0 -2 -1 -1 0 -1 -3 4 3 -3 -0 -1 -3 1 0 -13 5 4 0 -0 -4 -2
-2 -2 -6 -5 -3 -3 -5 -2 -1 3 0 2 4 1 1 -0 -5 -0 -4 -1 -0 3 4 1 -0 -1 3 8 0 -3 -3 2 -3 -1 1 -1 -5 -5 2 2 -3 4 -1 -0 1 2 1
-1 -3 -1 -3 -4 -4 -6 -5 -2 3 1 -1 1 -1 -2 -3 1 0 -1 -1 -1 -1 -0 -2 -1 -1 2 -0 -1 -1 -3 -2 -1 5 -0 -3 -3 9 -2 4 3 1 -2 0 2 1 -1
Height
3086 3080 3075 3070 3065 3060 3055 3050 3045 3041 3036 3033 3030 3025 3023 3023 3025 3027 3030 3031 3031 3034 3036 3037 3039 3042 3043 3045 3047 3047 3049 3051 3055 3058 3062 3065 3068 3073 3075 3076 3079 3081 3083 3087 3085 3084 3084
3082 3077 3071 3066 3059 3054 3048 3042 3036 3031 3026 3022 3019 3017 3014 3014 3016 3019 3021 3024 3026 3029 3030 3033 3035 3037 3039 3042 3041 3045 3047 3048 3052 3056 3059 3063 3066 3072 3073 3074 3074 3078 3079 3080 3079 3079 3079
3076 3069 3063 3057 3050 3044 3038 3031 3024 3018 3013 3009 3007 3005 3004 3003 3006 3009 3012 3017 3020 3023 3025 3028 3031 3032 3034 3039 3039 3042 3044 3046 3048 3053 3056 3061 3064 3066 3069 3071 3069 3071 3075 3074 3073 3074 3074
3071 3065 3058 3051 3043 3034 3024 3017 3012 3006 3003 2999 2996 2993 2992 2992 2994 2998 3003 3009 3014 3016 3020 3023 3026 3028 3028 3033 3035 3038 3041 3044 3047 3051 3055 3057 3061 3063 3066 3066 3068 3071 3072 3071 3071 3071 3072
3067 3060 3053 3046 3038 3029 3020 3012 3005 2998 2994 2992 2988 2983 2981 2982 2983 2986 2993 3000 3007 3011 3014 3017 3021 3024 3026 3029 3032 3034 3037 3040 3044 3049 3052 3054 3058 3059 3064 3066 3068 3068 3067 3068 3070 3068 3068
3063 3055 3048 3040 3031 3022 3013 3005 2999 2993 2989 2983 2979 2975 2975 2975 2975 2977 2983 2991 2998 3001 3007 3010 3014 3022 3020 3024 3027 3030 3033 3037 3040 3045 3048 3051 3055 3058 3060 3063 3063 3063 3064 3065 3066 3068 3062
3057 3049 3042 3033 3023 3013 3004 2997 2992 2986 2982 2978 2974 2971 2970 2970 2970 2970 2975 2985 2991 2991 2994 2998 3005 3012 3015 3020 3024 3027 3031 3035 3038 3042 3045 3048 3052 3053 3058 3061 3061 3062 3061 3061 3062 3063 3058
3051 3043 3035 3024 3013 3003 2996 2990 2985 2980 2976 2972 2968 2966 2965 2964 2965 2965 2966 2973 2976 2985 2992 2997 3005 3007 3013 3016 3021 3024 3028 3033 3035 3039 3042 3046 3045 3052 3056 3057 3057 3057 3058 3058 3058 3056 3054
3046 3036 3026 3014 3004 2996 2990 2984 2979 2974 2970 2966 2963 2962 2961 2958 2958 2957 2960 2966 2972 2978 2985 2992 2999 3004 3010 3015 3017 3020 3026 3030 3034 3037 3039 3042 3045 3046 3049 3052 3053 3053 3054 3055 3056 3053 3049
3041 3030 3018 3006 2998 2991 2985 2979 2973 2968 2964 2961 2959 2957 2954 2952 2951 2950 2954 2962 2965 2973 2981 2986 2992 2999 3006 3011 3016 3018 3023 3030 3031 3034 3039 3039 3045 3045 3046 3048 3050 3051 3053 3053 3053 3054 3050
3035 3023 3011 3001 2994 2986 2979 2973 2967 2963 2959 2956 2955 2953 2951 2948 2947 2950 2954 2956 2968 2973 2974 2984 2989 2994 3001 3010 3011 3014 3020 3025 3029 3033 3034 3039 3040 3041 3041 3044 3047 3048 3047 3049 3050 3049 3045
3030 3017 3006 2997 2989 2982 2974 2968 2963 2958 2955 2952 2950 2949 2946 2944 2944 2948 2951 2957 2964 2971 2967 2976 2981 2987 2995 3003 3008 3012 3018 3022 3027 3030 3032 3038 3036 3037 3038 3040 3042 3043 3045 3045 3047 3047 3040
3025 3012 3001 2993 2986 2978 2971 2965 2959 2953 2950 2949 2946 2944 2941 2938 2942 2946 2950 2953 2966 2964 2968 2973 2976 2982 2992 2998 3005 3009 3012 3016 3022 3028 3029 3032 3032 3032 3035 3038 3040 3041 3044 3044 3043 3042 3029
3021 3008 2997 2990 2982 2975 2968 2962 2955 2949 2948 2946 2943 2938 2935 2937 2940 2945 2949 2958 2964 2961 2966 2970 2976 2985 2992 2997 3004 3008 3012 3015 3020 3024 3027 3028 3030 3029 3028 3032 3036 3036 3041 3039 3030 3023 3018
3018 3006 2994 2987 2980 2973 2966 2959 2952 2949 2947 2944 2939 2933 2934 2936 2939 2945 2951 2958 2957 2962 2963 2968 2980 2987 2991 2997 3002 3007 3010 3013 3016 3020 3025 3025 3026 3025 3026 3028 3033 3033 3034 3036 3035 3031 3026
3017 3004 2992 2984 2978 2971 2964 2957 2952 2949 2946 2941 2936 2934 2937 2938 2942 2949 2957 2955 2957 2961 2966 2973 2978 2984 2988 2994 3000 3004 3008 3009 3013 3017 3021 3022 3025 3023 3025 3026 3028 3029 3032 3033 3034 3027 3013
3016 3003 2991 2982 2976 2970 2963 2957 2954 2949 2945 2939 2936 2937 2939 2941 2944 2951 2954 2957 2962 2967 2973 2979 2979 2982 2987 2991 2998 3002 3006 3008 3011 3013 3016 3019 3022 3022 3020 3018 3021 3024 3024 3026 3027 3023 3011
3015 3003 2989 2980 2975 2969 2963 2959 2955 2949 2943 2943 2940 2940 2944 2947 2952 2957 2961 2961 2965 2970 2973 2976 2981 2983 2987 2993 2997 3002 3005 3006 3007 3011 3013 3017 3018 3017 3015 3016 3017 3020 3018 3021 3020 3011 3006
3015 3003 2989 2980 2974 2969 2964 2960 2956 2951 2948 2948 2945 2945 2948 2952 2957 2961 2963 2966 2969 2974 2977 2979 2982 2986 2989 2994 3000 3002 3004 3003 3006 3009 3013 3014 3014 3014 3010 3014 3014 3014 3013 3013 3007 3004 2995
3014 3004 2990 2981 2975 2970 2967 2963 2960 2957 2955 2954 2951 2952 2952 2957 2961 2966 2968 2970 2973 2977 2980 2982 2985 2988 2991 2995 2997 3001 3001 3003 3006 3008 3009 3012 3011 3010 3009 3009 3012 3009 3005 3003 3000 2993 2984
3014 3004 2991 2983 2977 2972 2968 2966 2964 2962 2959 2958 2954 2956 2959 2961 2965 2968 2971 2974 2977 2981 2983 2985 2988 2990 2994 2996 2997 2999 3001 3002 3004 3006 3008 3010 3007 3008 3005 3002 3001 2998 2994 2990 2988 2982 2977
3014 3004 2994 2986 2979 2975 2971 2970 2968 2966 2965 2965 2963 2964 2965 2967 2971 2974 2977 2978 2982 2983 2986 2988 2990 2992 2993 2996 2998 2998 3000 3002 3004 3004 3006 3006 3005 3004 2997 2995 2994 2990 2985 2981 2977 2971 2964
3013 3005 2995 2988 2982 2977 2972 2971 2971 2970 2971 2969 2968 2967 2968 2969 2974 2978 2980 2982 2983 2985 2986 2988 2990 2992 2993 2994 2996 2997 2998 2999 3001 3002 3003 3004 3003 3003 2993 2991 2987 2982 2980 2975 2971 2967 2960
3013 3006 2997 2989 2984 2978 2973 2972 2972 2971 2971 2970 2967 2970 2971 2974 2975 2980 2980 2983 2983 2985 2987 2988 2990 2992 2993 2993 2995 2996 2996 2997 2997 2998 2999 3001 3001 3002 2993 2989 2983 2981 2977 2973 2969 2963 2959
3011 3005 2998 2990 2984 2979 2974 2971 2972 2972 2972 2972 2970 2971 2971 2974 2977 2980 2981 2983 2984 2986 2987 2988 2990 2991 2991 2994 2995 2995 2995 2995 2993 2992 2995 2998 3000 2999 2996 2991 2982 2978 2976 2972 2967 2963 2956
3009 3004 2996 2990 2984 2977 2974 2970 2970 2971 2971 2972 2971 2972 2973 2975 2977 2978 2981 2982 2984 2987 2988 2989 2989 2990 2991 2993 2994 2995 2994 2993 2993 2992 2993 2994 2996 2998 2995 2993 2985 2978 2975 2970 2966 2965 2959
3006 3002 2995 2988 2983 2976 2971 2968 2967 2968 2968 2969 2970 2971 2972 2973 2974 2976 2979 2982 2984 2986 2987 2987 2988 2988 2990 2992 2994 2994 2994 2993 2992 2991 2990 2992 2992 2992 2993 2993 2982 2978 2975 2971 2969 2970 2962
3001 2998 2994 2987 2981 2974 2967 2964 2962 2964 2966 2967 2968 2969 2971 2972 2974 2975 2977 2980 2982 2985 2987 2987 2989 2987 2988 2990 2992 2992 2991 2991 2989 2989 2989 2990 2990 2989 2990 2989 2983 2977 2975 2974 2971 2966 2964
2998 2994 2990 2984 2978 2972 2964 2960 2958 2958 2960 2963 2966 2968 2970 2971 2972 2973 2976 2978 2980 2982 2985 2985 2987 2987 2988 2989 2990 2989 2989 2989 2989 2988 2986 2988 2987 2986 2986 2982 2979 2977 2973 2971 2968 2965 2964